This is the latest recevied weather packets stored in our database for station/object YO9FTR-10. If no packets are shown the sender has not sent any weather packets the latest 10 day(s).
| Time | Temp. | Humidity | Pressure | Rain* | Wind** | Luminosity | Snow |
|---|---|---|---|---|---|---|---|
| 1777553857 | 3.33° C | 100% | 1027.3 hPa | - | - | - | - |
| 1777552954 | 3.33° C | 100% | 1027.3 hPa | - | - | - | - |
| 1777552052 | 4.44° C | 95% | 1027.3 hPa | - | - | - | - |
| 1777551149 | 4.44° C | 92% | 1027.3 hPa | - | - | - | - |
| 1777550246 | 5° C | 92% | 1027.2 hPa | - | - | - | - |
| 1777549343 | 5° C | 92% | 1027.2 hPa | - | - | - | - |
| 1777548440 | 4.44° C | 90% | 1027.2 hPa | - | - | - | - |
| 1777547537 | 5° C | 91% | 1027.2 hPa | - | - | - | - |
| 1777546634 | 3.89° C | 94% | 1027.2 hPa | - | - | - | - |
| 1777545731 | 3.89° C | 91% | 1027.3 hPa | - | - | - | - |
| 1777544828 | 3.89° C | 88% | 1027.2 hPa | - | - | - | - |
| 1777543925 | 5° C | 93% | 1027.3 hPa | - | - | - | - |
| 1777543023 | 5° C | 93% | 1027.3 hPa | - | - | - | - |
| 1777542120 | 4.44° C | 93% | 1027.3 hPa | - | - | - | - |
| 1777541216 | 3.89° C | 91% | 1027.3 hPa | - | - | - | - |
| 1777540313 | 4.44° C | 95% | 1027.2 hPa | - | - | - | - |
| 1777539411 | 3.89° C | 98% | 1027.1 hPa | - | - | - | - |
| 1777538508 | 3.33° C | 97% | 1027.1 hPa | - | - | - | - |
| 1777537605 | 3.33° C | 97% | 1027.1 hPa | - | - | - | - |
| 1777536702 | 3.89° C | 97% | 1027 hPa | - | - | - | - |
| 1777535800 | 3.89° C | 98% | 1026.9 hPa | - | - | - | - |
| 1777534896 | 3.89° C | 93% | 1026.8 hPa | - | - | - | - |
| 1777533993 | 4.44° C | 94% | 1026.7 hPa | - | - | - | - |
| 1777533090 | 4.44° C | 98% | 1026.6 hPa | - | - | - | - |
| 1777532188 | 3.89° C | 100% | 1026.5 hPa | - | - | - | - |
* Rain since midnight (hover to see other rain measurements)
** Current wind speed in m/s (hover to see current wind gust speed)